| time (UTC) | temp C | wind direction | speed KPH | gust KPH | rain 1hr cm | rain 24hr cm | rain mn cm | humidity % | barometer mb |
| 20260504204734 | 21 | 223 | 8.0 | 16.1 | 0.00 | 0.00 | 0.00 | 39 | |
| 20260504204238 | 20 | 214 | 3.2 | 14.5 | 0.00 | 0.00 | 0.00 | 44 | |
| 20260504203755 | 20 | 279 | 4.8 | 17.7 | 0.00 | 0.00 | 0.00 | 45 | |
| 20260504203237 | 20 | 215 | 9.7 | 16.1 | 0.00 | 0.00 | 0.00 | 43 | |
| 20260504202737 | 20 | 251 | 8.0 | 16.1 | 0.00 | 0.00 | 0.00 | 44 | |
| 20260504202246 | 20 | 235 | 4.8 | 11.3 | 0.00 | 0.00 | 0.00 | 48 | |
| 20260504201729 | 20 | 87 | 6.4 | 11.3 | 0.00 | 0.00 | 0.00 | 48 | |
| 20260504201251 | 19 | 185 | 6.4 | 12.9 | 0.00 | 0.00 | 0.00 | 50 | |
| 20260504200733 | 19 | 155 | 3.2 | 22.5 | 0.00 | 0.00 | 0.00 | 43 | |
| 20260504200243 | 19 | 222 | 14.5 | 22.5 | 0.00 | 0.00 | 0.00 | 42 | |
| 20260504195745 | 20 | 222 | 9.7 | 19.3 | 0.00 | 0.00 | 0.00 | 42 | |
| 20260504195248 | 20 | 234 | 9.7 | 24.1 | 0.00 | 0.00 | 0.00 | 42 | |
| 20260504194751 | 20 | 241 | 12.9 | 24.1 | 0.00 | 0.00 | 0.00 | 42 | |
| 20260504194229 | 20 | 239 | 4.8 | 12.9 | 0.00 | 0.00 | 0.00 | 43 | |
| 20260504193730 | 20 | 224 | 6.4 | 14.5 | 0.00 | 0.00 | 0.00 | 43 | |
| 20260504193249 | 19 | 212 | 8.0 | 17.7 | 0.00 | 0.00 | 0.00 | 44 | |
| 20260504192810 | 19 | 209 | 9.7 | 20.9 | 0.00 | 0.00 | 0.00 | 45 | |
| 20260504192232 | 19 | 255 | 6.4 | 17.7 | 0.00 | 0.00 | 0.00 | 45 | |
| 20260504191734 | 19 | 241 | 8.0 | 12.9 | 0.00 | 0.00 | 0.00 | 45 | |
| 20260504191249 | 18 | 266 | 6.4 | 12.9 | 0.00 | 0.00 | 0.00 | 47 | |
| 20260504190731 | 18 | 216 | 6.4 | 19.3 | 0.00 | 0.00 | 0.00 | 46 | |
| 20260504190251 | 18 | 251 | 8.0 | 19.3 | 0.00 | 0.00 | 0.00 | 46 | |
| 20260504185751 | 18 | 296 | 4.8 | 12.9 | 0.00 | 0.00 | 0.00 | 46 | |
| 20260504185235 | 19 | 235 | 6.4 | 11.3 | 0.00 | 0.00 | 0.00 | 46 | |
| 20260504184757 | 19 | 226 | 4.8 | 16.1 | 0.00 | 0.00 | 0.00 | 45 | |
| 20260504184228 | 19 | 257 | 8.0 | 16.1 | 0.00 | 0.00 | 0.00 | 44 | |
| 20260504183750 | 19 | 261 | 3.2 | 12.9 | 0.00 | 0.00 | 0.00 | 46 | |
| 20260504183231 | 19 | 268 | 8.0 | 12.9 | 0.00 | 0.00 | 0.00 | 44 | |
| 20260504182732 | 19 | 241 | 4.8 | 12.9 | 0.00 | 0.00 | 0.00 | 46 | |
| 20260504182232 | 19 | 202 | 6.4 | 12.9 | 0.00 | 0.00 | 0.00 | 46 | |
| 20260504181733 | 18 | 329 | 3.2 | 17.7 | 0.00 | 0.00 | 0.00 | 47 | |
| 20260504181301 | 18 | 245 | 6.4 | 17.7 | 0.00 | 0.00 | 0.00 | 49 | |
| 20260504180730 | 18 | 257 | 6.4 | 16.1 | 0.00 | 0.00 | 0.00 | 48 | |
| 20260504180253 | 18 | 225 | 8.0 | 11.3 | 0.00 | 0.00 | 0.00 | 48 | |
| 20260504175812 | 18 | 228 | 6.4 | 12.9 | 0.00 | 0.00 | 0.00 | 47 | |
| 20260504175227 | 18 | 301 | 4.8 | 14.5 | 0.00 | 0.00 | 0.00 | 48 | |
| 20260504174730 | 18 | 246 | 6.4 | 14.5 | 0.00 | 0.00 | 0.00 | 49 | |
| 20260504174230 | 18 | 218 | 6.4 | 16.1 | 0.00 | 0.00 | 0.00 | 48 | |
| 20260504173731 | 18 | 216 | 4.8 | 12.9 | 0.00 | 0.00 | 0.00 | 49 | |
| 20260504173243 | 18 | 220 | 8.0 | 14.5 | 0.00 | 0.00 | 0.00 | 49 | |
| 20260504172740 | 17 | 239 | 8.0 | 12.9 | 0.00 | 0.00 | 0.00 | 50 | |
| 20260504172237 | 17 | 217 | 8.0 | 16.1 | 0.00 | 0.00 | 0.00 | 50 | |
| 20260504171737 | 17 | 233 | 9.7 | 16.1 | 0.00 | 0.00 | 0.00 | 51 | |
| 20260504171233 | 17 | 247 | 3.2 | 12.9 | 0.00 | 0.00 | 0.00 | 51 | |
| 20260504170732 | 17 | 245 | 8.0 | 14.5 | 0.00 | 0.00 | 0.00 | 50 | |
| 20260504170231 | 18 | 227 | 8.0 | 14.5 | 0.00 | 0.00 | 0.00 | 51 | |
| 20260504160307 | 16 | 58 | 4.8 | 12.9 | 0.00 | 0.00 | 0.00 | 56 | |
| 20260504150732 | 14 | 217 | 3.2 | 6.4 | 0.00 | 0.00 | 0.00 | 70 | |
| 20260504150233 | 13 | 236 | 1.6 | 6.4 | 0.00 | 0.00 | 0.00 | 73 | |
| 20260504141229 | 12 | 300 | 3.2 | 8.0 | 0.00 | 0.00 | 0.00 | 79 | |
| 20260504140731 | 12 | 297 | 4.8 | 8.0 | 0.00 | 0.00 | 0.00 | 79 | |
| 20260504140253 | 12 | 308 | 1.6 | 8.0 | 0.00 | 0.00 | 0.00 | 79 | |
| 20260504130753 | 12 | 249 | 0.0 | 0.0 | 0.00 | 0.00 | 0.00 | 78 | |
| 20260504130231 | 12 | 249 | 0.0 | 0.0 | 0.00 | 0.00 | 0.00 | 78 | |
| 20260504120250 | 12 | 249 | 0.0 | 0.0 | 0.00 | 0.00 | 0.00 | 76 | |
| 20260504110234 | 13 | 239 | 3.2 | 6.4 | 0.00 | 0.00 | 0.00 | 75 | |
| 20260504100249 | 13 | 310 | 3.2 | 4.8 | 0.00 | 0.00 | 0.00 | 75 | |
| 20260504081742 | 12 | 285 | 0.0 | 0.0 | 0.00 | 0.00 | 0.00 | 76 | |
| 20260504081309 | 12 | 285 | 0.0 | 0.0 | 0.00 | 0.00 | 0.00 | 76 | |
| 20260504080750 | 12 | 272 | 0.0 | 0.0 | 0.00 | 0.00 | 0.00 | 75 | |
| 20260504080232 | 12 | 272 | 0.0 | 0.0 | 0.00 | 0.00 | 0.00 | 75 | |
| 20260504070252 | 12 | 272 | 0.0 | 3.2 | 0.00 | 0.00 | 0.00 | 76 | |
| 20260504060235 | 13 | 310 | 4.8 | 8.0 | 0.00 | 0.00 | 0.00 | 75 | |
| 20260504050751 | 14 | 245 | 4.8 | 11.3 | 0.00 | 0.00 | 0.00 | 73 | |
| 20260504050226 | 14 | 249 | 6.4 | 11.3 | 0.00 | 0.00 | 0.00 | 73 | |
| 20260504045808 | 14 | 233 | 4.8 | 9.7 | 0.00 | 0.00 | 0.00 | 72 | |
| 20260504045228 | 14 | 232 | 4.8 | 6.4 | 0.00 | 0.00 | 0.00 | 72 | |
| 20260504044730 | 14 | 263 | 0.0 | 6.4 | 0.00 | 0.00 | 0.00 | 72 | |
| 20260504044245 | 14 | 241 | 1.6 | 6.4 | 0.00 | 0.00 | 0.00 | 72 | |
| 20260504043728 | 14 | 258 | 0.0 | 4.8 | 0.00 | 0.00 | 0.00 | 71 | |
| 20260504043253 | 14 | 262 | 1.6 | 6.4 | 0.00 | 0.00 | 0.00 | 71 | |
| 20260504042732 | 14 | 251 | 3.2 | 6.4 | 0.00 | 0.00 | 0.00 | 71 | |
| 20260504042233 | 14 | 195 | 3.2 | 4.8 | 0.00 | 0.00 | 0.00 | 71 | |
| 20260504041735 | 14 | 300 | 0.0 | 3.2 | 0.00 | 0.00 | 0.00 | 71 | |
| 20260504041233 | 14 | 243 | 1.6 | 3.2 | 0.00 | 0.00 | 0.00 | 71 | |
| 20260504040734 | 14 | 231 | 1.6 | 3.2 | 0.00 | 0.00 | 0.00 | 71 | |
| 20260504040310 | 14 | 276 | 1.6 | 8.0 | 0.00 | 0.00 | 0.00 | 71 | |
| 20260504035733 | 14 | 133 | 4.8 | 8.0 | 0.00 | 0.00 | 0.00 | 71 | |
| 20260504035233 | 14 | 56 | 1.6 | 4.8 | 0.00 | 0.00 | 0.00 | 72 | |
| 20260504034733 | 14 | 280 | 0.0 | 3.2 | 0.00 | 0.00 | 0.00 | 72 | |
| 20260504034230 | 14 | 280 | 1.6 | 6.4 | 0.00 | 0.00 | 0.00 | 72 | |
| 20260504033730 | 14 | 289 | 0.0 | 11.3 | 0.00 | 0.00 | 0.00 | 71 | |
| 20260504033230 | 14 | 266 | 3.2 | 12.9 | 0.00 | 0.00 | 0.00 | 71 | |
| 20260504032750 | 14 | 241 | 6.4 | 11.3 | 0.00 | 0.00 | 0.00 | 71 | |
| 20260504032232 | 14 | 242 | 4.8 | 11.3 | 0.00 | 0.00 | 0.00 | 70 | |
| 20260504031754 | 14 | 222 | 3.2 | 8.0 | 0.00 | 0.00 | 0.00 | 69 | |
| 20260504031229 | 14 | 302 | 3.2 | 12.9 | 0.00 | 0.00 | 0.00 | 69 | |
| 20260504030727 | 15 | 310 | 1.6 | 16.1 | 0.00 | 0.00 | 0.00 | 69 | |
| 20260504030303 | 15 | 301 | 8.0 | 16.1 | 0.00 | 0.00 | 0.00 | 68 | |
| 20260504025745 | 15 | 251 | 3.2 | 16.1 | 0.00 | 0.00 | 0.00 | 68 | |
| 20260504025247 | 15 | 258 | 4.8 | 11.3 | 0.00 | 0.00 | 0.00 | 67 | |
| 20260504024729 | 15 | 286 | 3.2 | 9.7 | 0.00 | 0.00 | 0.00 | 67 | |
| 20260504024250 | 15 | 258 | 3.2 | 12.9 | 0.00 | 0.00 | 0.00 | 67 | |
| 20260504023730 | 15 | 251 | 4.8 | 12.9 | 0.00 | 0.00 | 0.00 | 66 | |
| 20260504023232 | 15 | 288 | 6.4 | 12.9 | 0.00 | 0.00 | 0.00 | 65 | |
| 20260504022733 | 15 | 231 | 3.2 | 9.7 | 0.00 | 0.00 | 0.00 | 64 | |
| 20260504022245 | 16 | 301 | 4.8 | 12.9 | 0.00 | 0.00 | 0.00 | 63 | |
| 20260504021729 | 16 | 262 | 4.8 | 12.9 | 0.00 | 0.00 | 0.00 | 63 | |
| 20260504021229 | 16 | 301 | 1.6 | 14.5 | 0.00 | 0.00 | 0.00 | 62 | |
| 20260504020732 | 16 | 222 | 6.4 | 11.3 | 0.00 | 0.00 | 0.00 | 62 | |
| 20260504020244 | 16 | 266 | 4.8 | 14.5 | 0.00 | 0.00 | 0.00 | 62 | |
| 20260504015746 | 17 | 231 | 4.8 | 14.5 | 0.00 | 0.00 | 0.00 | 61 | |
| 20260504015229 | 17 | 277 | 3.2 | 12.9 | 0.00 | 0.00 | 0.00 | 61 | |
| 20260504014729 | 17 | 249 | 1.6 | 16.1 | 0.00 | 0.00 | 0.00 | 60 | |
| 20260504014250 | 17 | 259 | 9.7 | 16.1 | 0.00 | 0.00 | 0.00 | 58 | |
| 20260504013748 | 17 | 226 | 8.0 | 14.5 | 0.00 | 0.00 | 0.00 | 57 | |
| 20260504013245 | 17 | 249 | 3.2 | 11.3 | 0.00 | 0.00 | 0.00 | 59 | |
| 20260504012747 | 17 | 228 | 8.0 | 11.3 | 0.00 | 0.00 | 0.00 | 59 | |
| 20260504012233 | 17 | 241 | 1.6 | 6.4 | 0.00 | 0.00 | 0.00 | 58 | |
| 20260504011732 | 17 | 228 | 3.2 | 11.3 | 0.00 | 0.00 | 0.00 | 55 | |
| 20260504011312 | 17 | 202 | 3.2 | 11.3 | 0.00 | 0.00 | 0.00 | 55 | |
| 20260504010732 | 17 | 224 | 3.2 | 6.4 | 0.00 | 0.00 | 0.00 | 55 | |
| 20260504010245 | 18 | 172 | 3.2 | 8.0 | 0.00 | 0.00 | 0.00 | 55 | |
| 20260504005727 | 18 | 197 | 1.6 | 8.0 | 0.00 | 0.00 | 0.00 | 55 | |
| 20260504005232 | 18 | 224 | 1.6 | 6.4 | 0.00 | 0.00 | 0.00 | 55 | |
| 20260504004734 | 18 | 204 | 1.6 | 11.3 | 0.00 | 0.00 | 0.00 | 55 | |
| 20260504004305 | 18 | 193 | 1.6 | 11.3 | 0.00 | 0.00 | 0.00 | 55 | |
| 20260504003725 | 18 | 211 | 3.2 | 8.0 | 0.00 | 0.00 | 0.00 | 55 | |
| 20260504003245 | 18 | 168 | 4.8 | 8.0 | 0.00 | 0.00 | 0.00 | 55 | |
| 20260504002727 | 18 | 221 | 1.6 | 11.3 | 0.00 | 0.00 | 0.00 | 55 | |
| 20260504002243 | 18 | 125 | 6.4 | 11.3 | 0.00 | 0.00 | 0.00 | 55 | |
| 20260504001747 | 18 | 152 | 3.2 | 8.0 | 0.00 | 0.00 | 0.00 | 54 | |
| 20260504001231 | 18 | 231 | 3.2 | 6.4 | 0.00 | 0.00 | 0.00 | 55 | |
| 20260504000732 | 18 | 225 | 1.6 | 11.3 | 0.00 | 0.00 | 0.00 | 55 | |
| 20260504000236 | 18 | 189 | 4.8 | 11.3 | 0.00 | 0.00 | 0.00 | 55 | |
| 20260503235737 | 18 | 95 | 4.8 | 8.0 | 0.00 | 0.00 | 0.00 | 54 | |
| 20260503235242 | 18 | 185 | 1.6 | 6.4 | 0.00 | 0.00 | 0.00 | 54 | |
| 20260503234743 | 18 | 199 | 3.2 | 14.5 | 0.00 | 0.00 | 0.00 | 54 | |
| 20260503234228 | 18 | 188 | 8.0 | 14.5 | 0.00 | 0.00 | 0.00 | 54 | |
| 20260503233728 | 18 | 79 | 1.6 | 12.9 | 0.00 | 0.00 | 0.00 | 54 | |
| 20260503233239 | 18 | 102 | 4.8 | 14.5 | 0.00 | 0.00 | 0.00 | 55 | |
| 20260503232742 | 18 | 175 | 9.7 | 14.5 | 0.00 | 0.00 | 0.00 | 54 | |
| 20260503232247 | 18 | 119 | 1.6 | 8.0 | 0.00 | 0.00 | 0.00 | 54 | |
| 20260503231731 | 18 | 324 | 3.2 | 6.4 | 0.00 | 0.00 | 0.00 | 55 | |
| 20260503231243 | 18 | 119 | 4.8 | 6.4 | 0.00 | 0.00 | 0.00 | 54 | |
| 20260503230746 | 18 | 243 | 4.8 | 12.9 | 0.00 | 0.00 | 0.00 | 55 | |
| 20260503230230 | 18 | 217 | 6.4 | 12.9 | 0.00 | 0.00 | 0.00 | 55 | |
| 20260503225750 | 18 | 91 | 3.2 | 9.7 | 0.00 | 0.00 | 0.00 | 56 | |
| 20260503225252 | 18 | 190 | 4.8 | 9.7 | 0.00 | 0.00 | 0.00 | 56 | |
| 20260503224727 | 17 | 204 | 3.2 | 8.0 | 0.00 | 0.00 | 0.00 | 56 | |
| 20260503224231 | 18 | 207 | 1.6 | 9.7 | 0.00 | 0.00 | 0.00 | 57 | |
| 20260503223732 | 17 | 204 | 1.6 | 9.7 | 0.00 | 0.00 | 0.00 | 57 | |
| 20260503223243 | 17 | 237 | 3.2 | 9.7 | 0.00 | 0.00 | 0.00 | 57 | |
| 20260503222746 | 17 | 241 | 3.2 | 14.5 | 0.00 | 0.00 | 0.00 | 57 | |
| 20260503222226 | 18 | 224 | 3.2 | 12.9 | 0.00 | 0.00 | 0.00 | 57 | |
| 20260503221728 | 18 | 122 | 4.8 | 11.3 | 0.00 | 0.00 | 0.00 | 58 | |
| 20260503221247 | 17 | 250 | 1.6 | 12.9 | 0.00 | 0.00 | 0.00 | 58 | |
| 20260503220747 | 18 | 209 | 6.4 | 12.9 | 0.00 | 0.00 | 0.00 | 57 | |
| 20260503220233 | 17 | 237 | 1.6 | 14.5 | 0.00 | 0.00 | 0.00 | 58 | |
| 20260503215734 | 17 | 126 | 4.8 | 14.5 | 0.00 | 0.00 | 0.00 | 58 | |
| 20260503215234 | 18 | 141 | 3.2 | 4.8 | 0.00 | 0.00 | 0.00 | 58 | |
| 20260503214734 | 18 | 104 | 1.6 | 4.8 | 0.00 | 0.00 | 0.00 | 58 | |
| 20260503214246 | 18 | 133 | 1.6 | 6.4 | 0.00 | 0.00 | 0.00 | 58 | |
| 20260503213807 | 18 | 152 | 1.6 | 8.0 | 0.00 | 0.00 | 0.00 | 58 | |
| 20260503213231 | 18 | 220 | 1.6 | 6.4 | 0.00 | 0.00 | 0.00 | 58 | |
| 20260503212733 | 18 | 198 | 3.2 | 8.0 | 0.00 | 0.00 | 0.00 | 59 | |
| 20260503212243 | 17 | 210 | 1.6 | 8.0 | 0.00 | 0.00 | 0.00 | 60 | |
| 20260503211727 | 17 | 267 | 4.8 | 9.7 | 0.00 | 0.00 | 0.00 | 60 | |
| 20260503211229 | 17 | 196 | 4.8 | 9.7 | 0.00 | 0.00 | 0.00 | 60 | |
| 20260503210732 | 17 | 126 | 3.2 | 8.0 | 0.00 | 0.00 | 0.00 | 60 | |
| 20260503210240 | 17 | 122 | 1.6 | 8.0 | 0.00 | 0.00 | 0.00 | 61 | |
| 20260503205745 | 17 | 102 | 3.2 | 9.7 | 0.00 | 0.00 | 0.00 | 61 | |
| 20260503205226 | 17 | 173 | 3.2 | 11.3 | 0.00 | 0.00 | 0.00 | 61 |